Regional Weather Roundup
Issued by NWS Cleveland, OH

Home | Current Version | Previous Version | Graphics & Text | Print | Product List | Glossary On
Versions: 1 2 3 4 5 6 7 8 9 10 11 12 13 14 15 16 17 18 19 20 21 22 23 24 25 26 27 28 29 30 31 32 33 34 35 36 37 38 39 40 41 42 43 44 45 46 47 48 49 50
000
ASUS41 KCLE 230800
RWRCLE
OHIO REGIONAL WEATHER ROUNDUP
NATIONAL WEATHER SERVICE WILMINGTON, OH
300 AM EST THU FEB 23 2017

NOTE: "FAIR" INDICATES FEW OR NO CLOUDS BELOW 12,000 FEET WITH NO
SIGNIFICANT WEATHER AND/OR OBSTRUCTIONS TO VISIBILITY.

OHZ001>008-015>018-024>027-034-035-043-044-230900-
   NORTHWEST OHIO

CITY           SKY/WX    TMP DP  RH WIND       PRES   REMARKS
DEFIANCE       MOCLDY    56  52  86 SW13      29.69F
FINDLAY        FAIR      56  52  86 S12       29.71F
TOLEDO EXPRESS MOCLDY    57  55  93 SW9G18    29.68F
TOLEDO EXEC    FAIR      58  55  90 S14       29.70S
LIMA           FAIR      56  54  93 S12       29.73F
$$

OHZ009>014-019>023-028>033-038-089-230900-
   NORTHEAST OHIO

CITY           SKY/WX    TMP DP  RH WIND       PRES   REMARKS
CLE-HOPKINS    CLOUDY    58  52  80 S12       29.76F
CLE-LAKEFRONT  CLOUDY    59  53  80 S21G29    29.72F
CUY CO. ARPT   NOT AVBL
LORAIN-ELYRIA  FAIR      56  51  84 S15       29.74F
ASHTABULA      CLOUDY    55  52  89 S12       29.76S
AKRON-CANTON   CLOUDY    55  52  89 S10       29.79S FOG
WOOSTER        NOT AVBL
MANSFIELD      CLOUDY    56  54  93 S13       29.77S
YOUNGSTOWN     CLOUDY    54  51  90 S8        29.80R
$$

OHZ042-051>053-060>062-070>072-077>081-230900-
  SOUTHWEST OHIO

CITY           SKY/WX    TMP DP  RH WIND       PRES   REMARKS
CINC-COVINGTON CLOUDY    57  55  93 S6        29.79R
CINC-LUNKEN    CLOUDY    55  55 100 CALM      29.80R
HAMILTON       MOCLDY    52  52 100 E3        29.79F FOG
DAYTON         NOT AVBL
WRIGHT-PAT AFB NOT AVBL
DAYTON GENERAL FAIR      54  53  97 S7        29.78S
WILMINGTON     MOCLDY    54  54 100 S6        29.79S
$$

OHZ036-037-039>041-045>050-054>059-063>069-073>076-082>088-230900-
  CENTRAL AND SOUTHEAST OHIO

CITY           SKY/WX    TMP DP  RH WIND       PRES   REMARKS
COLUMBUS       FAIR      53  52  96 CALM      29.79S
OSU AIRPORT    FAIR      54  54 100 S8        29.78F FOG
BOLTON FIELD   NOT AVBL
RICKENBACK AFB NOT AVBL
NEWARK         FAIR      54  52  93 SW3       29.79S
MARION         CLOUDY    56  53  90 S15       29.77F FOG
LANCASTER      FAIR      57  54  89 S6        29.80S
ZANESVILLE     MOCLDY    55  53  93 S7        29.81S
NEW PHILLY     CLOUDY    55  53  93 SE5       29.81S
$$



USA.gov is the U.S. government's official web portal to all federal, state and local government web resources and services.